Location: Azul
(36.7830°S, 59.8500°W)
Time: 12:57:22
(UTC-03:00)

DX 1 - Pass Details

Date: 28 October 2021
Orbit: 619 x 629 km, 98.4° (Epoch: 29 November)

Event Time Altitude Azimuth Distance (km) Brightness Sun altitude
Rises 21:15:45 0° 336° (NNW) 2,909 ? -20.0°
Reaches altitude 10° 21:18:35 10° 317° (NW) 2,011 ? -20.4°
Maximum altitude 21:21:31 18° 274° (W) 1,582 ? -20.9°
Drops below altitude 10° 21:24:28 10° 232° (SW) 2,028 ? -21.4°
Sets 21:27:21 0° 212° (SSW) 2,944 ? -21.8°
